Litchfield, MN

5:04 PM CDT on October 21, 2017 (GMT -0500)
Litchfield Municipal

Weather History for KLJF - February, 2012

Change the Weather History Date:

Saturday, February 4, 2012

  Actual Average Record
Temperature  
Mean Temperature 27 °F -  
Max Temperature 33 °F 21 °F 51 °F (1990)
Min Temperature 21 °F 1 °F -25 °F (1982)
Degree Days  
Heating Degree Days 38    
Moisture  
Dew Point 26 °F    
Average Humidity 100    
Maximum Humidity 100    
Minimum Humidity 93    
Precipitation  
Precipitation 0.00 in - - ()
Sea Level Pressure  
Sea Level Pressure 30.39 in    
Wind  
Wind Speed 6 mph (NNW)    
Max Wind Speed 13 mph    
Max Gust Speed 16 mph    
Visibility 5 miles    
Events Fog , Snow    
Averages and records for this station are not official NWS values.
T = Trace of Precipitation, MM = Missing Value Source: NWS Daily Summary

Daily Weather History Graph

Daily Weather History Graph

Search for Another Location

Airport or City:

Trip Planner

Search our weather history database for the weather conditions in past years. The results will help you decide how hot, cold, wet, or windy it might be!

Date:

Astronomy

Feb. 04, 2012 Rise Set
Actual Time 7:35 AM CST 5:29 PM CST
Civil Twilight 7:03 AM CST 6:00 PM CST
Nautical Twilight 6:28 AM CST 6:35 PM CST
Astronomical Twilight 5:54 AM CST 7:10 PM CST
Moon 2:22 PM CST (2/4) 5:06 AM CST (2/4)
Length of Visible Light 10h 56m
Length of Day
9h 54m
Waxing Gibbous, 89% of the Moon is Illuminated
Feb 4
Waxing Gibbous
Feb 7
Full
Feb 14
Last Quarter
Feb 21
New
Feb 29
First Quarter

Hourly Weather History & Observations

Time (CST) Temp. Windchill Dew Point Humidity Pressure Visibility Wind Dir Wind Speed Gust Speed Precip Events Conditions
12:13 AM 26.6 °F - 26.6 °F 100% 30.45 in 1.0 mi Calm Calm - N/A   Overcast
12:33 AM 26.6 °F 18.2 °F 26.6 °F 100% 30.46 in 0.5 mi NNE 8.1 mph - N/A Fog Light Freezing Fog
12:53 AM 26.6 °F 17.5 °F 26.6 °F 100% 30.45 in 0.5 mi North 9.2 mph - N/A Fog Light Freezing Fog
1:13 AM 26.6 °F 18.2 °F 26.6 °F 100% 30.44 in 0.5 mi NNE 8.1 mph - N/A Fog Light Freezing Fog
1:33 AM 26.6 °F 19.1 °F 26.6 °F 100% 30.43 in 0.2 mi NNE 6.9 mph - N/A Fog Light Freezing Fog
1:53 AM 26.6 °F 18.2 °F 26.6 °F 100% 30.42 in 0.5 mi NE 8.1 mph - N/A Fog Light Freezing Fog
2:13 AM 24.8 °F 17.9 °F 24.8 °F 100% 30.42 in 0.2 mi NE 5.8 mph - N/A Fog Light Freezing Fog
2:33 AM 24.8 °F 16.1 °F 24.8 °F 100% 30.41 in 0.2 mi North 8.1 mph - N/A Fog Light Freezing Fog
2:53 AM 24.8 °F 17.9 °F 24.8 °F 100% 30.41 in 0.2 mi North 5.8 mph - N/A Fog Light Freezing Fog
3:13 AM 24.8 °F 20.5 °F 24.8 °F 100% 30.40 in 0.2 mi NNE 3.5 mph - N/A Fog Light Freezing Fog
3:33 AM 24.8 °F 17.9 °F 24.8 °F 100% 30.41 in 0.2 mi NNE 5.8 mph - N/A Fog Light Freezing Fog
3:53 AM 24.8 °F 16.9 °F 24.8 °F 100% 30.40 in 0.5 mi NNE 6.9 mph - N/A Fog Light Freezing Fog
4:13 AM 24.8 °F 19.1 °F 24.8 °F 100% 30.40 in 0.2 mi North 4.6 mph - N/A Fog Light Freezing Fog
4:33 AM 24.8 °F 16.1 °F 24.8 °F 100% 30.41 in - North 8.1 mph - N/A   Overcast
4:53 AM 24.8 °F 19.1 °F 24.8 °F 100% 30.41 in - North 4.6 mph - N/A Snow Light Snow
5:13 AM 24.8 °F 17.9 °F 24.8 °F 100% 30.41 in - North 5.8 mph - N/A   Overcast
5:33 AM 23.0 °F 17.0 °F 23.0 °F 100% 30.41 in - North 4.6 mph - N/A   Overcast
5:53 AM 23.0 °F 14.7 °F 23.0 °F 100% 30.42 in - NNW 6.9 mph - N/A   Overcast
6:13 AM 23.0 °F 13.9 °F 23.0 °F 100% 30.42 in - NNW 8.1 mph - N/A   Overcast
6:33 AM 23.0 °F 14.7 °F 23.0 °F 100% 30.41 in - North 6.9 mph - N/A   Overcast
6:53 AM 21.2 °F 14.9 °F 21.2 °F 100% 30.41 in 0.8 mi North 4.6 mph - N/A   Overcast
7:13 AM 21.2 °F 14.9 °F 21.2 °F 100% 30.41 in - NNW 4.6 mph - N/A   Overcast
7:33 AM 21.2 °F 14.9 °F 21.2 °F 100% 30.41 in 0.5 mi North 4.6 mph - N/A Fog Light Freezing Fog
7:53 AM 21.2 °F 14.9 °F 21.2 °F 100% 30.41 in 0.2 mi North 4.6 mph - N/A Fog Light Freezing Fog
8:13 AM 21.2 °F 13.6 °F 21.2 °F 100% 30.42 in 0.2 mi NNW 5.8 mph - N/A Fog Light Freezing Fog
8:33 AM 21.2 °F 14.9 °F 21.2 °F 100% 30.42 in 0.2 mi North 4.6 mph - N/A Fog Light Freezing Fog
8:54 AM 21.2 °F 16.4 °F 21.2 °F 100% 30.42 in 0.2 mi NNW 3.5 mph - N/A Fog Light Freezing Fog
9:13 AM 23.0 °F 18.4 °F 23.0 °F 100% 30.43 in 0.2 mi North 3.5 mph - N/A Fog Light Freezing Fog
9:33 AM 23.0 °F - 23.0 °F 100% 30.43 in 0.2 mi Calm Calm - N/A Fog Light Freezing Fog
9:53 AM 23.0 °F - 23.0 °F 100% 30.43 in 0.5 mi Calm Calm - N/A Fog Light Freezing Fog
10:13 AM 24.8 °F - 24.8 °F 100% 30.43 in 0.8 mi Calm Calm - N/A   Overcast
10:33 AM 24.8 °F - 24.8 °F 100% 30.42 in 0.8 mi Calm Calm - N/A   Overcast
10:53 AM 24.8 °F - 24.8 °F 100% 30.42 in 1.5 mi Calm Calm - N/A   Overcast
11:13 AM 24.8 °F - 24.8 °F 100% 30.42 in 4.0 mi Calm Calm - N/A   Overcast
11:33 AM 26.6 °F 22.6 °F 26.6 °F 100% 30.42 in 4.0 mi West 3.5 mph - N/A   Overcast
11:53 AM 26.6 °F 22.6 °F 26.6 °F 100% 30.41 in 5.0 mi NW 3.5 mph - N/A   Overcast
12:13 PM 26.6 °F 22.6 °F 26.6 °F 100% 30.41 in 7.0 mi NW 3.5 mph - N/A   Overcast
12:33 PM 26.6 °F 21.2 °F 26.6 °F 100% 30.40 in 5.0 mi West 4.6 mph - N/A   Overcast
12:53 PM 28.4 °F 24.6 °F 28.4 °F 100% 30.40 in 7.0 mi West 3.5 mph - N/A   Overcast
1:13 PM 28.4 °F 23.3 °F 28.4 °F 100% 30.40 in 7.0 mi WNW 4.6 mph - N/A   Overcast
1:33 PM 28.4 °F 23.3 °F 28.4 °F 100% 30.39 in 7.0 mi WNW 4.6 mph - N/A   Overcast
1:53 PM 28.4 °F 24.6 °F 28.4 °F 100% 30.38 in 10.0 mi NW 3.5 mph - N/A   Overcast
2:13 PM 28.4 °F 23.3 °F 28.4 °F 100% 30.37 in 10.0 mi WNW 4.6 mph - N/A   Overcast
2:33 PM 30.2 °F 24.3 °F 30.2 °F 100% 30.36 in 10.0 mi WNW 5.8 mph - N/A   Overcast
2:53 PM 30.2 °F 25.4 °F 30.2 °F 100% 30.36 in 10.0 mi WNW 4.6 mph - N/A   Overcast
3:13 PM 30.2 °F 25.4 °F 30.2 °F 100% 30.36 in 10.0 mi WNW 4.6 mph - N/A   Overcast
3:33 PM 32.0 °F 27.5 °F 32.0 °F 100% 30.35 in 10.0 mi WNW 4.6 mph - N/A   Scattered Clouds
3:53 PM 32.0 °F 27.5 °F 32.0 °F 100% 30.35 in 10.0 mi West 4.6 mph - N/A   Scattered Clouds
4:13 PM 33.8 °F 28.6 °F 33.8 °F 100% 30.35 in 10.0 mi WNW 5.8 mph - N/A   Scattered Clouds
4:33 PM 33.8 °F 28.6 °F 33.8 °F 100% 30.34 in 10.0 mi West 5.8 mph - N/A   Clear
4:53 PM 33.8 °F 27.7 °F 33.8 °F 100% 30.34 in 10.0 mi WNW 6.9 mph - N/A   Clear
5:13 PM 32.0 °F 27.5 °F 32.0 °F 100% 30.34 in 10.0 mi West 4.6 mph - N/A   Clear
5:33 PM 30.2 °F 23.4 °F 30.2 °F 100% 30.34 in 10.0 mi West 6.9 mph - N/A   Clear
5:53 PM 30.2 °F 21.3 °F 28.4 °F 93% 30.34 in 10.0 mi WNW 10.4 mph - N/A   Clear
6:13 PM 28.4 °F 19.7 °F 28.4 °F 100% 30.34 in 10.0 mi WNW 9.2 mph - N/A   Scattered Clouds
6:33 PM 28.4 °F 19.1 °F 28.4 °F 100% 30.35 in 10.0 mi WNW 10.4 mph - N/A   Mostly Cloudy
6:53 PM 26.6 °F 16.2 °F 26.6 °F 100% 30.35 in 10.0 mi WNW 11.5 mph - N/A   Overcast
7:14 PM 26.6 °F 16.8 °F 26.6 °F 100% 30.35 in 10.0 mi WNW 10.4 mph - N/A   Overcast
7:33 PM 26.6 °F 16.8 °F 26.6 °F 100% 30.36 in 10.0 mi NW 10.4 mph - N/A   Overcast
7:53 PM 26.6 °F 15.7 °F 26.6 °F 100% 30.36 in 10.0 mi WNW 12.7 mph 16.1 mph N/A   Overcast
8:13 PM 26.6 °F 18.2 °F 26.6 °F 100% 30.35 in 7.0 mi WNW 8.1 mph - N/A   Overcast
8:33 PM 26.6 °F 16.8 °F 26.6 °F 100% 30.35 in 7.0 mi WNW 10.4 mph 16.1 mph N/A   Overcast
8:53 PM 26.6 °F 16.2 °F 26.6 °F 100% 30.35 in 7.0 mi WNW 11.5 mph - N/A   Overcast
9:14 PM 26.6 °F 15.7 °F 26.6 °F 100% 30.34 in 5.0 mi NW 12.7 mph 16.1 mph N/A   Overcast
9:33 PM 26.6 °F 15.2 °F 26.6 °F 100% 30.34 in 5.0 mi WNW 13.8 mph - N/A   Overcast
9:53 PM 26.6 °F 18.2 °F 26.6 °F 100% 30.34 in 5.0 mi WNW 8.1 mph - N/A   Overcast
10:13 PM 26.6 °F 16.8 °F 26.6 °F 100% 30.35 in 5.0 mi NW 10.4 mph 16.1 mph N/A   Overcast
10:33 PM 26.6 °F 16.8 °F 26.6 °F 100% 30.35 in 5.0 mi WNW 10.4 mph - N/A   Overcast
10:53 PM 26.6 °F 15.7 °F 26.6 °F 100% 30.35 in 5.0 mi WNW 12.7 mph - N/A   Overcast
11:14 PM 26.6 °F 16.8 °F 26.6 °F 100% 30.35 in 4.0 mi WNW 10.4 mph - N/A   Overcast
11:33 PM 26.6 °F 17.5 °F 26.6 °F 100% 30.35 in 4.0 mi NW 9.2 mph 16.1 mph N/A   Overcast
11:53 PM 26.6 °F 17.5 °F 26.6 °F 100% 30.35 in 5.0 mi NW 9.2 mph - N/A   Overcast